[Date Prev][Date Next][Thread Prev][Thread Next] - [Date Index][Thread Index][Author Index]

2 Line ISS Keps 6-2



ISS
1 25544U 98067A   04154.42083333  .00009404  00000-0  85940-4 0  9100
2 25544  51.6328  41.0059 0006070 182.4179 165.5141 15.68625838315993


----
Via the sarex mailing list at AMSAT.ORG courtesy of AMSAT-NA.
To unsubscribe, send "unsubscribe sarex" to Majordomo@amsat.org



AMSAT Top AMSAT Home